Regional Weather Roundup
Issued by NWS San Diego, CA

Home | Current Version | Previous Version | Text Only | Print | Product List | Glossary On
Versions: 1 2 3 4 5 6 7 8 9 10 11 12 13 14 15 16 17 18 19 20 21 22 23 24 25 26 27 28 29 30 31 32 33 34 35 36 37 38 39 40 41 42 43 44 45 46 47 48 49 50
000
ASUS46 KSGX 241111
RWRSGX

SAN DIEGO HOURLY WEATHER ROUNDUP
NATIONAL WEATHER SERVICE SAN DIEGO CA
400 AM PDT SUN MAY 24 2015

NOTE: "FAIR" INDICATES FEW OR NO CLOUDS BELOW 12,000 FEET WITH NO
SIGNIFICANT WEATHER AND/OR OBSTRUCTIONS TO VISIBILITY.

CAZ042-043-060-061-PZZ750-775-241200-

GREATER SAN DIEGO AREA

CITY           SKY/WX    TMP DP  RH WIND       PRES   REMARKS
LINDBERGH FLD  MOCLDY    62  52  69 W7        30.01F
POINT LOMA       N/A     58  51  77 W12         N/A
NATIONAL CITY    N/A     62  56  81 SW5       30.01S
CHULA VISTA      N/A     61  56  82 W5        29.94S
IMPERIAL BEACH CLOUDY    61  53  75 W12       30.02S
BROWN FIELD    CLOUDY    59  51  75 SW8       30.00S
MIRAMAR MCAS   MOCLDY    62  51  67 W6        29.99F
MONTGOMERY FLD CLOUDY    59  52  77 SW7       30.00F

$$

NORTH SAN DIEGO COUNTY

CITY           SKY/WX    TMP DP  RH WIND       PRES   REMARKS
CAMP PENDLETON LGT RAIN  60  54  80 SW3       30.00R
OCEANSIDE AP   CLOUDY    62  54  74 W3        29.99R
OCEANSIDE HBR    N/A     62  57  84 W10       30.02R
VISTA            N/A     60  54  79 CALM      29.99R
CARLSBAD       CLOUDY    61  53  75 W5        30.00R
DEL MAR          N/A     60  54  80 CALM      30.03R
LA JOLLA SCRIP   N/A    N/A N/A N/A SW7       29.98S
FALLBROOK        N/A     59  58  96 SW3       30.00S
ESCONDIDO        N/A     58  54  85 W3        30.02R
SAN MARCOS       N/A     59  53  83 W3        29.99R
POWAY            N/A     58  53  82 SW2       30.01S

$$

EAST SAN DIEGO COUNTY

CITY           SKY/WX    TMP DP  RH WIND       PRES   REMARKS
RAMONA         LGT RAIN  55  51  86 SW3       30.00S
SANTEE LAKES     N/A     60  55  83 CALM      30.00S
LA MESA          N/A     59  54  85 CALM      29.94S
JAMUL            N/A     56  52  87 CALM      30.00S
DESCANSO N       N/A     47  46  96 CALM      29.91R
MT. LAGUNA OBS   N/A     40  40 100 W12       29.60F WCI  33
CAMPO            N/A     50  46  86 SW6       29.97R

$$

ORANGE COUNTY AND THE LOS ANGELES BASIN

CITY           SKY/WX    TMP DP  RH WIND       PRES   REMARKS
JOHN WAYNE AP  CLOUDY    61  52  72 SW6       29.98F
SANTA ANA        N/A     63  55  75 CALM      29.93F
HUNTINGTON BCH   N/A     61  56  83 CALM      29.99F
LOS ALAMITOS   CLOUDY    61  53  75 SW2       29.98F
FULLERTON      CLOUDY    63  51  65 SW3       29.97F
LONG BEACH     CLOUDY    62  51  67 W5        29.98F
L.A. AP        MOCLDY    60  51  72 SW5       29.99F
L.A. DOWNTOWN  PTCLDY    59  50  72 CALM      29.98R

$$

THE INLAND EMPIRE

CITY           SKY/WX    TMP DP  RH WIND       PRES   REMARKS
CORONA         MOCLDY    59  52  77 W5        29.98F
CHINO          CLOUDY    60  53  77 SW7       29.98F
ONTARIO        CLOUDY    58  51  78 W6        29.97F
RIVERSIDE AP   CLOUDY    59  52  77 W5        29.97F
RIV CYN CREST    N/A     57  57 100 CALM        N/A
MORENO VALLEY    N/A     55  54  96 W3        29.95S
MARCH ARB      CLOUDY    56  52  87 NW6       29.98F
HORSETHIEF CYN   N/A     56  50  80 CALM      29.95S
PERRIS           N/A     56  53  90 S1          N/A
MENIFEE          N/A     58  53  86 S1        30.05R
FRENCH VALLEY  CLOUDY    55  50  82 SW3       30.00R
TEMECULA         N/A     57  55  90 SW3       29.96S

$$

SAN BERNARDINO AND RIVERSIDE COUNTY MOUNTAINS

CITY           SKY/WX    TMP DP  RH WIND       PRES   REMARKS
BIG BEAR AP    MOCLDY    34  32  93 CALM      30.04F
PINE COVE        N/A     39  39  99 NW3       29.98S

$$

SOUTHERN DESERT INCLUDING THE COACHELLA VALLEY

CITY           SKY/WX    TMP DP  RH WIND       PRES   REMARKS
PALM SPRINGS   CLEAR     65  49  56 CALM      29.86R
THOUSAND PALMS   N/A     64  50  58 NW21      29.83F
PALM DESERT      N/A     64  52  64 CALM      30.16
THERMAL        CLEAR     66  50  56 NW16G22   29.83R
BLYTHE         CLEAR     66  51  58 SW8       29.84F
IMPERIAL AP    CLEAR     62  47  57 W10       29.84S
EL CENTRO NAS  CLEAR     66  45  46 W17       29.86S
YUMA AZ        CLEAR     63  48  58 SE5       29.86S

$$

UPPER DESERT

CITY           SKY/WX    TMP DP  RH WIND       PRES   REMARKS
VICTORVILLE AP CLOUDY    55  43  62 W14G21    29.96S
HESPERIA         N/A     50  46  87 W2        30.05F
APPLE VALLEY     N/A     52  45  77 CALM      30.04S
PALMDALE       CLEAR     53  43  68 SW6       29.97S
LANCASTER      CLEAR     55  45  68 W15       29.97R
EDWARDS AFB    CLEAR     54  43  67 S7        29.93S
DAGGETT        CLEAR     59  43  55 W9        29.93R
29 PALMS N     PTCLDY    62  44  51 NW10      29.96R
NEEDLES        CLEAR     71  43  36 SW8       29.83F

$$

REGIONAL REPORTS

CITY           SKY/WX    TMP DP  RH WIND       PRES   REMARKS
SANTA BARBARA  CLEAR     51  47  86 CALM      29.99F
SANDBERG       PTCLDY    50  45  83 NW37G47   30.00F
LAS VEGAS NV   MOCLDY    69  43  38 S8        29.82S
PHOENIX AZ     CLEAR     71  42  35 W6        29.86F
TIJUANA        MOCLDY    59  48  67 SW7       30.03S
ENSENADA NW      N/A     59  32  36 E2        30.01S

$$

OFFSHORE ISLANDS

CITY           SKY/WX    TMP DP  RH WIND       PRES   REMARKS
CATALINA ARPT  CLOUDY    52  50  93 NW3       30.00F
SAN NICOLAS IS MOCLDY   N/A N/A N/A NW17      30.01R

$$

MARINE AND OFFSHORE BUOY REPORTS

STATION/POSITION SKY/WX   TEMP    WIND        PRES    SWELL
                          AIR SEA DIR/SP/G            HT/PER/DIR
                          (F)     (DEG/KT/KT) (MB)    (FT/S/D)
TANNER BANKS               59 61  320/ 19/ 23 1016.8F   2/320/10
S CLEMENTE BASIN           59 62  280/ 10/ 14 1016.1F   5/290/ 7
SAN NICOLAS IS.               58                N/A     2/220/14
SO. S. ROSA ISLA           57 59  320/ 19/ 25 1015.9S   3/ 9
W. S. BARBARA CH           55 55  320/ 17/ 21 1016.1F   5/310/ 8
M. S. BARBARA CH           57 58  280/  8/ 10 1016.1F
S. MONICA BASIN            59 62  300/  8/ 10 1015.4F
S PEDRO CHANNEL               63                N/A     2/190/13
DANA POINT                    65                N/A     2/180/13
OCEANSIDE OFFSHR              65                N/A     2/230/18
TORREY PINES OTR              65                N/A     2/210/13
LA JOLLA 1                 61 65  250/ 11/ 12 1015.9R
MISSION BAY BUOY              64                N/A     2/200/14
SAN DIEGO BAY                 68              1016.6R
POINT LOMA SOUTH              64                N/A     2/210/13

$$



USA.gov is the U.S. government's official web portal to all federal, state and local government web resources and services.